Theta_e
327 326 327 327 325 327 328 329 328 329 327 327 325 324 325 324 322 315 308 315 317 327 324 316 316 311 308 303 304 302 292 289 292 291 293 297 296 297 301 303 306 312 314 319 325
320 326 326 326 326 326 327 328 327 329 327 326 325 324 324 322 313 309 321 326 327 325 316 314 307 310 305 302 302 296 292 295 298 295 295 298 297 299 301 306 306 310 316 321 326
320 324 325 325 325 325 325 327 326 327 328 327 325 324 323 318 306 305 326 329 327 323 311 309 307 305 306 303 299 296 294 297 299 297 299 298 296 298 300 298 308 310 316 319 324
320 324 324 324 324 325 325 326 325 326 328 327 326 324 322 313 296 313 328 330 329 322 311 308 305 301 299 299 301 295 298 297 300 300 299 297 298 299 297 298 307 316 320 319 322
320 323 323 323 324 325 325 326 326 326 327 326 326 324 317 308 308 315 327 328 322 319 309 308 304 300 297 298 299 296 296 297 299 297 297 298 295 297 297 298 316 319 320 318 320
318 320 321 322 323 324 325 326 326 327 326 326 325 323 312 301 315 314 321 322 318 314 308 310 306 305 301 298 297 297 297 297 296 295 295 296 292 294 294 309 315 317 317 318 318
318 320 320 321 322 323 324 325 326 325 325 325 325 316 306 305 312 316 321 318 317 313 309 309 308 307 304 302 302 300 294 293 293 294 294 295 291 292 294 312 314 314 315 317 318
318 320 319 320 322 323 323 324 324 324 324 324 323 308 303 310 315 318 320 317 319 317 310 311 311 308 300 304 302 293 292 286 291 294 293 292 289 294 297 311 311 311 311 314 315
319 319 319 320 321 321 323 323 322 323 323 323 313 304 296 312 307 318 319 314 316 316 312 310 305 302 300 297 297 294 286 285 290 293 291 291 289 293 293 309 309 309 310 312 315
318 318 318 319 320 321 322 322 321 321 319 316 311 298 299 298 304 311 319 318 312 310 306 304 301 295 294 293 291 292 286 286 287 291 289 288 289 289 292 299 305 303 305 307 312
318 318 318 319 320 321 320 317 309 306 309 300 301 297 298 302 305 308 315 310 310 305 298 301 293 289 292 293 290 295 289 288 288 291 289 288 289 290 290 288 291 292 294 298 303
318 319 318 319 319 321 317 309 308 310 297 302 304 300 300 301 298 304 311 302 303 298 295 293 290 295 295 293 291 289 288 287 289 290 289 287 288 288 290 290 291 291 290 293 295
313 318 318 318 319 317 314 310 313 309 296 297 302 298 298 300 295 299 301 301 300 296 293 291 291 294 293 291 290 287 289 286 287 287 286 285 285 287 290 290 291 292 290 292 296
312 317 317 318 313 314 307 311 312 303 287 290 294 296 298 298 293 301 302 299 296 295 294 292 294 292 290 290 291 286 289 289 287 286 282 285 279 283 287 289 290 292 290 292 292
311 314 317 317 312 308 307 310 305 300 277 290 293 300 298 294 294 295 300 297 292 293 294 290 291 289 289 290 292 289 290 289 288 285 282 280 279 282 284 286 288 291 291 291 292
310 316 317 313 313 309 310 309 302 286 274 285 291 290 291 292 292 294 294 296 297 293 295 292 295 293 291 291 292 292 290 288 287 284 278 282 281 280 281 286 290 290 291 292 293
308 316 315 313 306 309 309 302 285 273 286 283 285 290 289 287 288 292 290 287 286 285 285 289 290 291 293 291 292 290 287 280 279 277 278 279 278 286 284 287 289 292 293 292 293
307 315 313 311 311 310 304 290 271 280 283 287 288 289 286 288 286 290 289 285 287 286 284 282 282 288 292 292 288 287 288 280 275 276 276 280 277 283 287 287 289 291 292 292 293
306 308 309 310 311 309 296 282 279 283 286 286 287 284 283 287 286 287 288 288 287 287 282 281 282 289 290 292 293 287 284 287 280 272 277 278 280 285 286 289 291 291 291 293 294
300 304 306 311 311 304 291 284 283 288 289 290 282 285 282 285 283 285 286 290 289 289 287 286 281 287 289 292 291 289 291 283 281 274 272 275 276 280 283 288 290 290 291 292 294
295 298 304 311 309 297 285 284 287 291 292 287 284 283 283 285 283 284 285 286 292 288 288 286 286 284 288 286 287 287 283 284 286 281 277 273 277 284 287 290 290 292 292 292 293
291 285 299 309 294 294 288 287 293 289 290 290 288 286 285 286 283 284 283 287 294 290 285 288 284 280 284 287 289 291 286 286 282 278 278 278 278 285 285 286 291 290 291 292 293
285 285 299 305 286 289 292 289 291 289 289 289 287 289 288 287 283 285 286 291 292 291 288 290 284 277 281 285 287 285 287 286 284 282 281 278 281 286 287 288 290 291 292 292 292
286 284 289 298 292 292 289 288 286 292 291 291 289 289 287 286 287 284 286 291 291 292 295 294 286 283 280 282 285 283 284 285 286 280 280 280 281 285 287 288 289 291 292 293 292
286 282 284 285 287 291 292 289 287 287 291 293 289 288 287 284 284 284 287 289 291 294 292 290 282 283 284 285 287 286 287 286 284 286 282 285 282 287 288 288 290 292 292 291 291
285 284 285 285 288 291 291 287 287 289 291 289 288 288 288 285 287 284 287 286 287 289 289 287 277 283 280 285 285 283 285 287 287 288 286 283 282 287 287 290 291 292 292 292 292
289 288 286 285 286 289 288 288 287 291 291 293 291 290 287 288 291 293 292 292 291 289 288 287 281 277 272 281 282 281 284 285 286 288 288 283 288 287 287 289 290 291 293 293 294
Wind_Speed
30 31 30 29 26 24 24 25 25 25 24 21 20 14 11 10 4 1 5 5 5 2 6 1 5 5 5 7 5 1 4 4 6 6 6 5 4 2 2 7 1 1 5 7 14
23 29 30 29 26 25 24 24 25 26 24 22 20 16 12 8 3 3 4 5 7 5 6 6 2 7 5 5 6 2 2 7 6 6 6 7 6 9 5 3 2 3 5 15 15
23 30 30 29 27 24 24 22 23 27 24 22 20 17 12 7 3 8 12 7 4 3 3 5 5 5 5 7 6 3 4 5 4 4 4 8 5 3 9 4 7 10 15 16 17
19 28 30 29 27 25 25 24 24 26 24 23 21 18 15 9 11 5 17 11 6 2 5 6 4 7 5 7 2 6 6 3 3 3 6 9 7 5 4 5 6 12 25 17 18
23 27 28 27 26 25 25 23 24 29 25 24 22 21 9 8 7 1 18 14 6 3 11 5 8 6 5 6 1 7 4 3 4 2 3 7 3 6 5 3 8 11 18 18 16
23 20 26 26 26 25 24 21 25 28 26 25 25 22 5 14 3 1 13 13 7 3 7 11 7 5 4 3 5 4 7 5 4 3 0 6 2 1 3 6 9 14 14 15 16
19 25 25 26 25 25 24 25 26 26 26 26 26 9 4 12 3 6 9 10 8 4 8 3 7 9 3 2 1 5 4 5 2 1 1 5 1 6 3 8 14 12 10 11 13
17 28 25 27 26 25 27 26 27 26 24 24 22 3 5 3 3 8 6 6 7 3 9 7 10 5 2 2 6 5 2 2 3 4 2 3 10 6 7 12 12 10 7 8 9
17 26 25 26 25 27 29 27 25 25 24 22 7 4 5 5 5 4 7 14 13 7 6 7 5 5 2 3 4 4 4 4 4 6 3 4 7 6 6 9 10 9 8 8 9
21 23 24 26 26 28 30 27 24 23 16 8 3 4 4 7 6 8 5 15 8 15 7 3 3 3 3 7 17 12 8 5 6 5 3 3 7 2 6 9 12 9 8 8 8
27 28 27 27 27 32 29 17 14 11 10 4 11 5 6 5 6 5 10 10 8 6 9 8 8 18 17 13 2 13 5 6 3 3 5 8 8 7 5 3 7 8 8 8 11
24 31 29 28 29 34 23 11 21 11 13 4 12 3 5 5 9 9 14 7 7 9 9 8 18 13 8 7 7 7 9 6 2 1 4 4 11 3 7 7 8 11 10 11 6
11 32 30 29 31 25 21 11 14 20 7 0 4 3 6 7 5 12 6 7 4 15 14 13 2 9 10 9 13 5 16 6 6 3 3 4 8 4 5 4 5 7 6 7 12
4 19 32 32 24 21 12 20 20 5 6 6 7 3 4 8 3 8 7 6 3 14 9 3 2 15 9 16 12 13 4 4 7 6 5 4 7 6 7 9 6 8 9 10 10
7 16 33 33 17 15 12 16 6 4 4 11 4 3 6 10 15 11 4 8 11 8 7 8 2 7 12 8 8 5 5 6 3 2 3 2 2 7 2 9 8 11 12 10 10
12 24 36 13 11 12 17 13 4 4 7 9 9 9 8 5 2 9 6 6 5 6 4 3 5 4 6 3 8 8 6 6 4 2 4 9 8 7 8 10 11 7 9 10 9
13 29 31 12 15 16 17 8 6 7 6 9 8 14 14 6 5 14 13 7 8 9 7 4 7 7 2 5 3 7 9 3 1 2 12 3 4 12 5 9 7 17 16 11 8
12 22 19 5 16 20 11 7 6 5 10 3 10 18 10 10 3 16 16 9 8 7 9 10 6 10 6 9 5 5 9 5 8 8 3 3 8 9 6 3 5 7 8 9 10
2 5 12 11 17 15 17 14 10 12 8 11 11 19 5 8 9 13 24 20 11 10 8 7 4 7 7 8 11 7 9 1 6 2 3 6 7 11 4 6 5 7 7 14 13
2 3 11 19 17 13 15 9 6 7 13 19 8 10 17 23 9 17 21 19 16 13 3 8 5 2 1 6 3 4 7 6 1 6 5 5 4 6 5 10 9 9 13 12 10
3 3 7 19 12 14 21 7 5 6 19 9 7 7 8 18 8 15 20 4 20 7 6 5 5 2 6 9 16 6 5 4 2 5 7 2 8 10 12 17 16 18 13 13 13
3 2 1 15 13 16 17 9 4 8 3 6 7 7 13 18 6 12 13 11 19 12 8 4 6 5 11 1 3 14 7 7 7 7 0 3 9 2 8 8 5 7 6 7 8
3 2 1 11 12 19 16 5 3 8 6 7 5 5 4 13 7 7 8 14 12 17 16 7 3 5 3 1 3 7 11 6 4 4 10 6 9 2 5 6 6 9 10 10 9
2 3 3 8 2 18 23 23 5 2 6 4 6 7 9 7 0 9 8 5 8 11 8 9 4 8 13 12 9 5 5 5 10 3 5 10 5 6 7 8 5 7 9 11 11
2 2 2 11 6 17 18 21 9 6 2 5 3 10 11 6 5 7 6 4 3 8 5 5 7 4 3 1 9 11 16 13 11 16 11 18 11 14 11 9 6 6 7 10 12
2 1 2 2 5 19 21 22 22 5 8 7 8 7 7 9 12 7 9 4 8 2 8 1 2 4 2 3 3 4 10 11 19 25 21 5 7 9 3 6 7 11 12 13 15
1 1 1 3 4 17 16 23 19 9 7 3 10 7 4 6 8 10 4 6 11 11 12 8 6 4 5 3 4 5 17 14 15 17 22 16 15 5 6 8 10 10 15 18 18
Wind_Direction
214 199 199 192 189 188 187 188 185 176 177 172 173 168 147 124 118 54 201 194 177 138 136 211 6 48 47 13 1 49 67 175 191 155 227 158 139 169 65 118 93 108 155 157 136
251 199 195 192 188 187 188 183 183 177 174 173 169 165 139 115 73 245 246 193 158 137 144 148 91 67 55 21 332 43 129 212 203 190 196 171 167 160 118 128 40 50 49 121 137
254 201 193 189 187 186 187 183 181 187 172 169 168 166 136 107 45 232 202 203 191 119 113 114 122 84 82 27 325 315 225 224 258 213 171 160 160 167 123 221 201 175 154 146 150
240 193 191 185 187 186 186 186 181 183 169 161 163 160 143 159 184 202 171 196 179 99 90 109 78 85 111 161 235 292 263 242 288 181 156 169 134 153 175 212 192 164 159 151 162
209 196 190 184 187 185 183 182 180 175 166 157 155 149 138 187 249 237 169 176 146 167 156 109 132 112 150 174 183 242 275 286 344 254 158 123 207 186 200 50 115 131 158 161 170
191 211 184 185 184 182 178 178 179 162 158 153 150 149 173 199 227 183 173 156 155 154 130 136 158 43 105 155 157 321 307 305 3 333 202 126 167 189 203 128 124 153 171 173 173
190 198 179 183 179 178 171 161 150 146 149 147 151 153 183 195 188 163 173 170 153 143 119 86 108 135 181 210 355 269 357 305 233 211 244 129 45 238 145 152 155 173 176 188 186
212 170 182 180 174 171 160 153 145 144 145 150 148 134 211 239 100 134 156 150 161 118 75 97 92 98 288 272 33 1 94 195 273 148 189 107 237 238 158 152 176 180 184 197 218
192 169 186 175 170 165 152 146 143 142 145 148 142 149 230 110 136 157 152 166 160 82 36 107 89 145 346 98 50 313 241 191 281 187 138 153 245 219 165 176 185 191 191 201 214
188 179 190 170 166 160 147 140 144 135 137 127 77 86 241 192 132 137 133 139 121 109 71 84 71 151 169 180 206 200 191 196 192 199 123 191 261 250 197 175 196 198 199 204 208
190 183 186 166 164 154 139 145 155 163 153 186 167 175 130 137 114 101 128 105 118 137 162 174 172 200 193 199 299 198 209 139 247 196 137 211 237 237 216 223 206 212 214 218 219
192 184 181 167 165 155 152 184 158 130 131 139 168 95 132 149 115 137 142 138 162 166 144 160 217 191 213 189 191 229 191 203 75 155 145 191 242 238 187 223 210 200 210 214 200
257 176 170 165 163 158 169 159 141 128 116 248 172 123 146 107 123 169 141 128 163 156 192 176 277 172 183 192 207 221 208 186 157 145 76 129 293 200 231 231 205 231 223 205 197
246 187 163 157 157 161 171 155 164 133 98 171 152 232 120 118 129 174 166 128 95 184 165 300 205 177 181 208 192 226 194 138 131 131 198 159 262 241 211 229 218 222 215 210 194
290 250 169 161 142 169 151 155 150 75 126 155 166 125 129 153 137 214 209 49 144 150 138 187 206 179 196 189 172 213 139 157 155 137 130 215 139 262 102 237 237 231 222 220 198
302 202 161 161 143 143 146 151 78 117 212 177 151 144 136 179 195 131 144 89 126 102 154 264 317 230 185 126 179 135 88 56 53 87 259 211 176 250 189 201 222 226 218 208 196
306 169 162 148 155 142 142 146 123 159 188 174 159 156 165 151 119 161 174 158 160 139 172 142 273 301 216 124 65 164 140 152 196 214 235 350 186 233 226 226 217 211 213 189 178
330 178 158 153 143 144 150 148 121 158 176 138 128 143 161 138 150 180 171 190 231 158 140 163 205 184 178 211 172 199 189 165 182 206 212 61 234 248 224 246 255 244 207 160 181
339 213 146 154 150 161 154 186 195 168 140 126 100 147 147 191 128 161 198 203 179 197 152 142 259 124 181 153 177 182 215 214 102 14 82 209 279 301 234 258 245 234 170 198 191
144 231 145 162 154 159 173 180 145 154 123 141 144 169 174 180 143 180 182 210 203 196 250 187 124 152 128 79 360 165 156 213 207 154 223 259 273 235 252 241 218 215 213 199 183
25 180 158 159 162 159 190 184 142 164 135 141 150 145 168 180 158 183 191 264 194 194 173 162 108 103 131 194 182 200 201 211 209 157 201 223 258 211 209 218 212 215 199 182 174
70 131 145 154 169 187 183 161 151 148 195 141 120 124 166 169 138 180 193 202 181 162 172 210 105 128 202 163 132 203 214 184 197 220 208 158 259 214 252 278 230 195 157 154 161
92 274 306 170 171 181 169 216 164 146 184 149 129 133 155 167 167 171 168 207 179 171 173 181 160 100 82 118 209 199 196 195 108 64 210 186 241 316 283 292 247 192 166 166 158
89 124 338 201 25 175 170 191 156 160 162 133 121 110 114 162 295 174 166 177 187 196 157 113 151 167 197 212 126 190 191 200 215 188 209 240 253 277 261 257 228 194 179 171 169
47 95 346 175 186 173 177 180 168 163 149 149 97 164 149 139 146 165 150 130 79 164 148 146 182 178 45 78 181 198 205 186 192 222 209 249 219 237 238 232 206 182 158 166 183
45 11 72 33 125 169 178 192 191 146 156 180 140 170 155 151 185 158 124 184 170 82 158 171 194 123 21 31 116 224 214 215 214 225 233 220 275 232 256 122 174 190 178 191 200
212 106 38 18 160 174 187 181 178 119 16 115 142 115 132 181 145 164 140 143 159 154 174 159 119 81 257 5 74 305 215 199 214 212 225 233 234 177 213 223 212 184 190 200 202